Regional Weather Roundup
Issued by NWS

Home | Current Version | Previous Version | Text Only | Print | Product List | Glossary On
Versions: 1 2 3 4 5 6 7 8 9 10 11 12 13 14 15 16 17 18 19 20 21 22 23 24 25 26 27 28 29 30 31 32 33 34 35 36 37 38 39 40 41 42 43 44 45 46 47 48 49 50
651
ASUS44 KJAN 211810
RWRMS

MISSISSIPPI HOURLY WEATHER ROUNDUP
NATIONAL WEATHER SERVICE JACKSON MS
1200 PM CST SAT JAN 21 2017

NOTE: "FAIR: INDICATES FEW OR NO CLOUDS BELOW 12,000 FEET WITH NO
SIGNIFICANT WEATHER AND/OR OBSTRUCTIONS TO VISIBILITY.

MSZ001>002-007>008-010>013-018>021-025>028-034>036-211900-
NORTHWEST MISSISSIPPI

CITY           SKY/WX    TMP DP  RH WIND       PRES   REMARKS
BATESVILLE     FAIR      69  52  55 S10       29.66F
CLARKSDALE     MOSUNNY   68  57  68 S14G22    29.64F
CLEVELAND      FAIR      65  60  84 S14       29.64F
GREENWOOD      MOSUNNY   69  53  56 S14       29.66F
6HR MIN TEMP:  56; 6HR MAX TEMP:  69;

GREENVILLE     CLOUDY    66  55  67 S12       29.64F
6HR MIN TEMP:  55; 6HR MAX TEMP:  66;

OLIVE BRANCH   MOSUNNY  N/A N/A N/A S14       29.64F
OXFORD         FAIR      68  48  49 S13G21    29.69F
TUNICA         PTCLDY    68  54  60 S13G21    29.64F
WINONA         FAIR      66  57  72 S12       29.69F
$$

MSZ003>006-009-014>017-022>024-029>033-037>039-211900-
NORTHEAST MISSISSIPPI

CITY           SKY/WX    TMP DP  RH WIND       PRES   REMARKS
COLUMBUS AFB   NOT AVBL
CORINTH        FAIR      70  50  49 S9        29.66F
GOLDN TRIANGLE MOSUNNY   66  54  63 SE7       29.66F
STARKVILLE     FAIR      66  55  68 SE6       29.71F
TUPELO         SUNNY     66  53  63 SE10      29.68F
6HR MIN TEMP:  56; 6HR MAX TEMP:  66;

$$

MSZ040-058-211900-
CENTRAL MISSISSIPPI

CITY           SKY/WX    TMP DP  RH WIND       PRES   REMARKS
JACKSON INTL   PTSUNNY   68  58  70 E8        29.67F
6HR MIN TEMP:  58; 6HR MAX TEMP:  69; 6HR PCP:  0.01;

JACKSON HAWKNS MOSUNNY   68  57  68 SE9       29.67F
6HR MIN TEMP:  57; 6HR MAX TEMP:  68; 6HR PCP: TRACE;

MADISON        FAIR      66  59  77 E3        29.67F
MERIDIAN KEY   SUNNY     69  58  67 S3        29.69F
6HR MIN TEMP:  60; 6HR MAX TEMP:  69; 6HR PCP:  0.19;

MERIDIAN NAS   MOSUNNY   66  54  65 CALM      29.70F
6HR MIN TEMP:  60; 6HR MAX TEMP:  67; 6HR PCP:  0.22;

RAYMOND        FAIR      70  59  68 SE7       29.66F
VICKSBURG VKS  CLEAR     68  59  73 SE7       29.63F
$$

MSZ059>079-211900-
SOUTH MISSISSIPPI

CITY           SKY/WX    TMP DP  RH WIND       PRES   REMARKS
BROOKHAVEN     FAIR      70  61  73 CALM      29.68F
HATTIESBURG    NOT AVBL
LAUREL         FAIR      66  60  79 CALM      29.70F
MCCOMB         MOSUNNY   69  59  70 SE7       29.68F
6HR MIN TEMP:  58; 6HR MAX TEMP:  69; 6HR PCP:  0.01;

NATCHEZ        MOSUNNY   70  59  68 SE12      29.64F
6HR MIN TEMP:  57; 6HR MAX TEMP:  70;

PINE BELT      SUNNY     64  57  77 S7        29.71F
6HR MIN TEMP:  59; 6HR MAX TEMP:  64; 6HR PCP:  0.04;

$$

MSZ080>082-211900-
COASTAL MISSISSIPPI

CITY           SKY/WX    TMP DP  RH WIND       PRES   REMARKS
BILOXI         MOSUNNY   70  63  79 SE8       29.70F
6HR MIN TEMP:  62; 6HR MAX TEMP:  70; 6HR PCP:  0.39;

PASCAGOULA     SUNNY     73  59  61 S7        29.71F
6HR MIN TEMP:  61; 6HR MAX TEMP:  74; 6HR PCP:  0.33;

GULFPORT       SUNNY     70  62  76 S7        29.70F
6HR MIN TEMP:  61; 6HR MAX TEMP:  71; 6HR PCP:  0.54;

$$

LAZ007>009-015>016-023>026-211900-
NORTHEAST LOUISIANA

CITY           SKY/WX    TMP DP  RH WIND       PRES   REMARKS
BASTROP        FAIR      71  58  62 SE5       29.64F
TALLULAH/VBURG CLOUDY    67  60  78 SE10      29.64F
6HR MIN TEMP:  57; 6HR MAX TEMP:  67;

VIDALIA        FAIR      69  60  73 S7        29.68F
$$




USA.gov is the U.S. government's official web portal to all federal, state and local government web resources and services.